THORAD DELTA 1 DEB, 8154

Orbit data source: Space-Track

THORAD DELTA 1 DEB, 8154 is space debris in SSO originally from a launch on Fri, 15 Nov 1974 UTC launched from the Air Force Western Test Range (AFWTR). Debris objects in space refer to the collection of defunct objects orbiting the Earth. Examples of debris include non-operational satellites, rocket bodies, and fragments generated from explosions, collisions, or faulty payload assembly.

Loading next visibility...
Identifier
8154, 1974-089U
Orbit
SSO
Country
Flag of USUS
Related business
Manufacturer
Unknown
Mission
Spacecraft
Bus & Motor
Unknown
Mass
Unknown
Launch date (UTC)
1974-11-15 (52 years ago)
Launch vehicle
Unknown
Launch site
Air Force Western Test Range (AFWTR)
Object type
Payload
Rocket body
Debris
Shape & HBR
Unknown shape, 0.2 m
Radar Cross Section
Small (<0.1 m²)

Expand to show TLE details & history
Last TLE update: 1 day ago

TLE from 1 day ago
0 THORAD DELTA 1 DEB
1  8154U 74089U   26143.96009196 -.00000036  00000-0  70254-4 0  9994
2  8154 102.0687 150.8869 0005603   3.6818  52.9492 12.52432580355119
Epoch: 2026-05-23T23:02Z
TLE epoch observation values (Epoch: 2026-05-23T23:02:31.945Z)
Latitude
54.89713°
Longitude
-93.93478°
Altitude
1,460.556 km
Speed
7.139 km/s
True Right ascension
08h 53m 04s
True Declination
54° 44' 59"
Sunlit
Object was in daylight at epoch
Visualization orbit readout
Latitude
Unknown
Longitude
Unknown
Altitude
Unknown
Speed
Unknown
Apparent Right ascension
Unknown
Apparent Declination
Unknown
Sunlit
N/A
Visualization observer readout
Local Sidereal Time
13:37:18
Azimuth
Unknown
Elevation
Unknown
Doppler factor
Unknown
Orbital elements
Apogee altitude
1,456.286 km
Perigee altitude
1,447.512 km
Semi-major axis
7,830.036 km
Eccentricity
0.00056
Inclination
102.0687°
RAAN
150.8869°
Arg. of periapsis
3.6818°
True anomaly
53.00046°
Mean anomaly
52.9492°
Eccentric anomaly
52.97483°
Mean motion
3.13255 °/min
Orbital period
114.92 mins
BSTAR
0.000070254
Loading maneuver chart data...
Computing Atmospheric mass density...

Documentation

Showing up to 5 results
|